Regional Weather Roundup
Issued by NWS

Home | Current Version | Previous Version | Graphics & Text | Print | Product List | Glossary On
Versions: 1 2 3 4 5 6 7 8 9 10 11 12 13 14 15 16 17 18 19 20 21 22 23 24 25 26 27 28 29 30 31 32 33 34 35 36 37 38 39 40 41 42 43 44 45 46 47 48 49 50
000
ASUS45 KABQ 261010
RWRNM
NEW MEXICO REGIONAL WEATHER ROUNDUP
NATIONAL WEATHER SERVICE ALBUQUERQUE NM
400 AM MDT THU APR 26 2018

NOTE: "FAIR" MEANS FEW OR NO CLOUDS BELOW 12,000 FEET AGL WITH NO
       SIGNIFICANT WEATHER OR OBSTRUCTIONS TO VISION.

      THIS PRODUCT IS RELEASED AS TWO VERSIONS.  ONE VERSION NEAR
      THE TOP OF THE HOUR CONTAINING PRELIMINARY DATA FROM ALBUQUERQUE
      AND OTHER STATIONS.  A FINAL VERSION WITH ADDITIONAL DATA IS
      ISSUED ABOUT 10 MINUTES AFTER THE HOUR.

NMZ501-503-504-510>518-261100-
NORTHWEST PLATEAU/NORTHCENTRAL MOUNTAINS

CITY           SKY/WX    TMP DP  RH WIND       PRES   REMARKS
FARMINGTON     FAIR      39  -5  15 CALM      30.08S
LOS ALAMOS     FAIR      51  -1  11 SW10      30.12F
SANTA FE       FAIR      41  30  65 NW3       30.09F
TAOS           FAIR      39  23  52 NE6       30.13F WCI  35
ANGEL FIRE     FAIR      24  19  80 S6        30.16S WCI  17

$$
NMZ402-403-502-505>509-261100-
WESTCENTRAL MOUNTAINS/SOUTHWEST MOUNTAINS

CITY           SKY/WX    TMP DP  RH WIND       PRES   REMARKS
GALLUP         FAIR      31   2  29 E3        30.17S
GRANTS         FAIR      34   2  26 NW5       30.17S WCI  30
SILVER CITY    FAIR      45  27  50 NW6       30.10F

$$
NMZ407-409-411-412-261100-
SOUTHERN DESERTS

CITY           SKY/WX    TMP DP  RH WIND       PRES   REMARKS
DEMING         FAIR      51  33  50 NE5       30.06F
LAS CRUCES     FAIR      53  37  53 CALM      30.08S
HOLLOMAN AFB   FAIR      52  38  57 SE13      30.10R
ALAMOGORDO     FAIR      46  32  57 NE6       30.09S
T OR C         FAIR      55  31  39 W6        30.06F

$$
NMZ519>523-261100-
CENTRAL VALLEYS/CENTRAL HIGHLANDS

CITY           SKY/WX    TMP DP  RH WIND       PRES   REMARKS
ALBUQUERQUE    FAIR      51  28  41 E6        30.07F
DOUBLE EAGLE   FAIR      43   9  24 N3        30.10S
MORIARTY ARPT  FAIR      32  25  75 N5        30.12R WCI  27
CLINES CORNERS FAIR      43  31  62 SW13      30.12F
BELEN          FAIR      47  26  44 N5        30.07S
SOCORRO        FAIR      50  31  49 SW5       30.07R

$$
NMZ524>526-539-540-261100-
SOUTHCENTRAL MOUNTAINS

CITY           SKY/WX    TMP DP  RH WIND       PRES   REMARKS
RUIDOSO        FAIR      45  32  61 CALM      30.16S

$$
NMZ527>531-261100-
NORTHEAST HIGHLANDS/NORTHEAST PLAINS

CITY           SKY/WX    TMP DP  RH WIND       PRES   REMARKS
LAS VEGAS      FAIR      40  31  70 S9        30.08F WCI  34
RATON          FAIR      39  27  62 N7        30.04F WCI  34
CLAYTON        FAIR      40  31  70 SW12      29.97F WCI  33

$$
NMZ532>537-261100-
EASTCENTRAL PLAINS

CITY           SKY/WX    TMP DP  RH WIND       PRES   REMARKS
SANTA ROSA     FAIR      45  32  61 S6        30.04F
TUCUMCARI      FAIR      46  34  62 SW10      29.99F
CANNON AFB     FAIR      44  33  65 SW7       30.05F
CLOVIS AIRPORT FAIR      40  28  62 W3        30.05F

$$
NMZ028-029-538-261100-
SOUTHEAST PLAINS

CITY           SKY/WX    TMP DP  RH WIND       PRES   REMARKS
ROSWELL        FAIR      45  34  65 SE6       30.05F
ARTESIA        FAIR      45  34  65 SW3       30.07F
CARLSBAD       FAIR      48  37  65 S9        30.05F
HOBBS          FAIR      41  37  87 W7        30.07F


$$




USA.gov is the U.S. government's official web portal to all federal, state and local government web resources and services.